Datetime-UTC, Datetime-J2000, North, East, Up
2023/03/06 00:00:00, 731332800.00, 0.000000, 0.000000, 0.000000
2023/03/06 00:05:00, 731333100.00, -0.001300, 0.000200, -0.019000
2023/03/06 00:10:00, 731333400.00, 0.004100, -0.001100, -0.027700
2023/03/06 00:15:00, 731333700.00, -0.003100, 0.003700, -0.016500
2023/03/06 00:20:00, 731334000.00, 0.004000, 0.005600, -0.013400
2023/03/06 00:25:00, 731334300.00, 0.000100, 0.003000, -0.011500
2023/03/06 00:30:00, 731334600.00, -0.006300, 0.005500, -0.014100
2023/03/06 00:35:00, 731334900.00, -0.000500, 0.003900, -0.025400
2023/03/06 00:40:00, 731335200.00, 0.004400, 0.002200, -0.016100
2023/03/06 00:45:00, 731335500.00, 0.003300, -0.001200, -0.021800
2023/03/06 00:50:00, 731335800.00, 0.005400, 0.000500, -0.019700
2023/03/06 00:55:00, 731336100.00, 0.010900, 0.002400, -0.000200
2023/03/06 01:00:00, 731336400.00, -0.008000, 0.000200, -0.042200
2023/03/06 01:05:00, 731336700.00, -0.003500, -0.005000, -0.039800
2023/03/06 01:10:00, 731337000.00, 0.012500, 0.002700, -0.014600
2023/03/06 01:15:00, 731337300.00, 0.006000, 0.001800, -0.015800
2023/03/06 01:20:00, 731337600.00, 0.000400, 0.000600, -0.026100
2023/03/06 01:25:00, 731337900.00, -0.012900, 0.001300, -0.037600
2023/03/06 01:30:00, 731338200.00, -0.002500, 0.004100, -0.047300
2023/03/06 01:35:00, 731338500.00, 0.001900, 0.001900, -0.043800
2023/03/06 01:40:00, 731338800.00, 0.001400, 0.001200, -0.043800
2023/03/06 01:45:00, 731339100.00, -0.000800, 0.000900, -0.030700
2023/03/06 01:50:00, 731339400.00, -0.011400, 0.002800, -0.053600
2023/03/06 01:55:00, 731339700.00, -0.003100, 0.006900, -0.026600
2023/03/06 02:00:00, 731340000.00, -0.005500, 0.006900, -0.039300
2023/03/06 02:05:00, 731340300.00, 0.005400, -0.006700, -0.022400
2023/03/06 02:10:00, 731340600.00, 0.004200, 0.002200, -0.054200
2023/03/06 02:15:00, 731340900.00, 0.006200, 0.006300, -0.072900
2023/03/06 02:20:00, 731341200.00, 0.002800, 0.003900, -0.029100
2023/03/06 02:25:00, 731341500.00, 0.002900, -0.006000, -0.055500
2023/03/06 02:30:00, 731341800.00, 0.010700, 0.001000, -0.057400
2023/03/06 02:35:00, 731342100.00, -0.004800, 0.003800, -0.036100
2023/03/06 02:40:00, 731342400.00, -0.007300, 0.011200, -0.045200
2023/03/06 02:45:00, 731342700.00, 0.001400, 0.009500, -0.055200
2023/03/06 02:50:00, 731343000.00, 0.003400, 0.009900, -0.029200
2023/03/06 02:55:00, 731343300.00, -0.003300, 0.000800, -0.037600
2023/03/06 03:00:00, 731343600.00, -0.000600, 0.000400, -0.034500
2023/03/06 03:05:00, 731343900.00, -0.002800, 0.010500, -0.039000
2023/03/06 03:10:00, 731344200.00, 0.004000, 0.011600, -0.046200
2023/03/06 03:15:00, 731344500.00, -0.002100, 0.003500, -0.025700
2023/03/06 03:20:00, 731344800.00, -0.003900, 0.013300, -0.017400
2023/03/06 03:25:00, 731345100.00, -0.004400, 0.006100, -0.019900
2023/03/06 03:30:00, 731345400.00, -0.001600, 0.009900, -0.008200
2023/03/06 03:35:00, 731345700.00, -0.000200, 0.012000, -0.059600
2023/03/06 03:40:00, 731346000.00, 0.003200, 0.014600, -0.034600
2023/03/06 03:45:00, 731346300.00, -0.001600, 0.008400, -0.030900
2023/03/06 03:50:00, 731346600.00, 0.000000, 0.006600, -0.029400
2023/03/06 03:55:00, 731346900.00, -0.004200, 0.006900, -0.041200
2023/03/06 04:00:00, 731347200.00, 0.008400, 0.002600, -0.038000
2023/03/06 04:05:00, 731347500.00, -0.001400, 0.002400, -0.042500
2023/03/06 04:10:00, 731347800.00, 0.005300, -0.000800, -0.035500
2023/03/06 04:15:00, 731348100.00, -0.003400, 0.011400, -0.053100
2023/03/06 04:20:00, 731348400.00, -0.002500, 0.008900, -0.029200
2023/03/06 04:25:00, 731348700.00, -0.002500, 0.002700, -0.020800
2023/03/06 04:30:00, 731349000.00, -0.004700, 0.015600, -0.058700
2023/03/06 04:35:00, 731349300.00, -0.006800, 0.011500, -0.047500
2023/03/06 04:40:00, 731349600.00, 0.002000, 0.010100, -0.062000
2023/03/06 04:45:00, 731349900.00, -0.010400, 0.008700, -0.049000
2023/03/06 04:50:00, 731350200.00, -0.010300, 0.007300, -0.048600
2023/03/06 04:55:00, 731350500.00, -0.001300, 0.004500, -0.048500
2023/03/06 05:00:00, 731350800.00, -0.007100, 0.010600, -0.064700
2023/03/06 05:05:00, 731351100.00, -0.004300, 0.013300, -0.046100
2023/03/06 05:10:00, 731351400.00, -0.005000, 0.010200, -0.012000
2023/03/06 05:15:00, 731351700.00, 0.003900, 0.005600, -0.053200
2023/03/06 05:20:00, 731352000.00, -0.003100, 0.011100, -0.044100
2023/03/06 05:25:00, 731352300.00, 0.005600, 0.005500, -0.043400
2023/03/06 05:30:00, 731352600.00, 0.005300, 0.005800, -0.049000
2023/03/06 05:35:00, 731352900.00, 0.000800, 0.006900, -0.052000
2023/03/06 05:40:00, 731353200.00, -0.007900, 0.002500, -0.047600
2023/03/06 05:45:00, 731353500.00, -0.004500, 0.005000, -0.047600
2023/03/06 05:50:00, 731353800.00, -0.005300, 0.006400, -0.052700
2023/03/06 05:55:00, 731354100.00, -0.001000, 0.002600, -0.042700
2023/03/06 06:00:00, 731354400.00, -0.009100, 0.005200, -0.047900
2023/03/06 06:05:00, 731354700.00, 0.006000, -0.000100, -0.037300
2023/03/06 06:10:00, 731355000.00, -0.002900, 0.013800, -0.050300
2023/03/06 06:15:00, 731355300.00, -0.000300, 0.003400, -0.039900
2023/03/06 06:20:00, 731355600.00, -0.002900, 0.007700, -0.037900
2023/03/06 06:25:00, 731355900.00, -0.004600, 0.009700, -0.039800
2023/03/06 06:30:00, 731356200.00, -0.004500, 0.006600, -0.041900
2023/03/06 06:35:00, 731356500.00, 0.000200, 0.002500, -0.045100
2023/03/06 06:40:00, 731356800.00, -0.001000, 0.001100, -0.038800
2023/03/06 06:45:00, 731357100.00, 0.002000, -0.004700, -0.046500
2023/03/06 06:50:00, 731357400.00, -0.004800, -0.005000, -0.051300
2023/03/06 06:55:00, 731357700.00, 0.003400, -0.005400, -0.055000
2023/03/06 07:00:00, 731358000.00, 0.008500, 0.003600, -0.052500
2023/03/06 07:05:00, 731358300.00, 0.002900, 0.001500, -0.053700
2023/03/06 07:10:00, 731358600.00, 0.006700, 0.004100, -0.040000
2023/03/06 07:15:00, 731358900.00, 0.002800, 0.002400, -0.017700
2023/03/06 07:20:00, 731359200.00, 0.004800, 0.001500, -0.021300
2023/03/06 07:25:00, 731359500.00, 0.006400, -0.001200, -0.058000
2023/03/06 07:30:00, 731359800.00, -0.006200, 0.002100, -0.055700
2023/03/06 07:35:00, 731360100.00, -0.005200, 0.004200, -0.039900
2023/03/06 07:40:00, 731360400.00, 0.004800, 0.007300, -0.030400
2023/03/06 07:45:00, 731360700.00, -0.005100, 0.005900, -0.065400
2023/03/06 07:50:00, 731361000.00, -0.006000, 0.004300, -0.032500
2023/03/06 07:55:00, 731361300.00, -0.013000, 0.010400, -0.045600
2023/03/06 08:00:00, 731361600.00, 0.001200, 0.007000, -0.049300
2023/03/06 08:05:00, 731361900.00, 0.006200, 0.009300, -0.057600
2023/03/06 08:10:00, 731362200.00, -0.001400, 0.003000, -0.051400
2023/03/06 08:15:00, 731362500.00, 0.015200, 0.001900, -0.054900
2023/03/06 08:20:00, 731362800.00, 0.005200, 0.005500, -0.048500
2023/03/06 08:25:00, 731363100.00, -0.002000, 0.008500, -0.057000
2023/03/06 08:30:00, 731363400.00, 0.003800, 0.004300, -0.055700
2023/03/06 08:35:00, 731363700.00, 0.005900, 0.005200, -0.029200
2023/03/06 08:40:00, 731364000.00, 0.005900, 0.017800, -0.056500
2023/03/06 08:45:00, 731364300.00, 0.004400, 0.005200, -0.052700
2023/03/06 08:50:00, 731364600.00, 0.008500, 0.015000, -0.067000
2023/03/06 08:55:00, 731364900.00, -0.000100, 0.004700, -0.038500
2023/03/06 09:00:00, 731365200.00, -0.001800, 0.009900, -0.017900
2023/03/06 09:05:00, 731365500.00, 0.002200, 0.003400, -0.026800
2023/03/06 09:10:00, 731365800.00, -0.000700, 0.003500, -0.040900
2023/03/06 09:15:00, 731366100.00, 0.007700, 0.012800, -0.062400
2023/03/06 09:20:00, 731366400.00, 0.000000, 0.009700, -0.040800
2023/03/06 09:25:00, 731366700.00, -0.001300, 0.010700, -0.041800
2023/03/06 09:30:00, 731367000.00, -0.005200, 0.009400, -0.025300
2023/03/06 09:35:00, 731367300.00, 0.009500, 0.005900, -0.009100
2023/03/06 09:40:00, 731367600.00, -0.004500, 0.001700, -0.017100
2023/03/06 09:45:00, 731367900.00, -0.002500, 0.002800, -0.044600
2023/03/06 09:50:00, 731368200.00, 0.005300, 0.011200, -0.043600
2023/03/06 09:55:00, 731368500.00, 0.012500, 0.007300, -0.051600
2023/03/06 10:00:00, 731368800.00, -0.004000, 0.008400, -0.036800
2023/03/06 10:05:00, 731369100.00, 0.013700, 0.005100, -0.016200
2023/03/06 10:10:00, 731369400.00, -0.010300, 0.001900, -0.037000
2023/03/06 10:15:00, 731369700.00, 0.008700, 0.011700, -0.025300
2023/03/06 10:20:00, 731370000.00, -0.008400, -0.001000, -0.049000
2023/03/06 10:25:00, 731370300.00, -0.006000, 0.016200, -0.042500
2023/03/06 10:30:00, 731370600.00, 0.007000, 0.003500, -0.037000
2023/03/06 10:35:00, 731370900.00, 0.001200, 0.007600, -0.043000
2023/03/06 10:40:00, 731371200.00, 0.003100, 0.003900, -0.030200
2023/03/06 10:45:00, 731371500.00, -0.003100, 0.008400, -0.041500
2023/03/06 10:50:00, 731371800.00, 0.000700, 0.009700, -0.043200
2023/03/06 10:55:00, 731372100.00, -0.003700, 0.012400, -0.040700
2023/03/06 11:00:00, 731372400.00, 0.002400, 0.005800, -0.050300
2023/03/06 11:05:00, 731372700.00, 0.009800, 0.004800, -0.035000
2023/03/06 11:10:00, 731373000.00, -0.002000, 0.004800, -0.037400
2023/03/06 11:15:00, 731373300.00, 0.009600, 0.001100, -0.051600
2023/03/06 11:20:00, 731373600.00, 0.008000, 0.007000, -0.020000
2023/03/06 11:25:00, 731373900.00, 0.002200, 0.007900, -0.042300
2023/03/06 11:30:00, 731374200.00, 0.009600, 0.013000, -0.076100
2023/03/06 11:35:00, 731374500.00, 0.005900, 0.015400, -0.029800
2023/03/06 11:40:00, 731374800.00, 0.003700, 0.008700, -0.024900
2023/03/06 11:55:00, 731375700.00, -0.006100, 0.008200, -0.002600
2023/03/06 12:00:00, 731376000.00, 0.001400, 0.013200, -0.016300
2023/03/06 12:05:00, 731376300.00, 0.003000, 0.015900, -0.020200
2023/03/06 12:10:00, 731376600.00, 0.001300, 0.009600, -0.028000
2023/03/06 12:15:00, 731376900.00, 0.002500, 0.009000, -0.048800
2023/03/06 12:20:00, 731377200.00, -0.006400, 0.001300, -0.046200
2023/03/06 12:25:00, 731377500.00, -0.008000, 0.014300, -0.023500
2023/03/06 12:30:00, 731377800.00, 0.003000, 0.010600, -0.040600
2023/03/06 12:35:00, 731378100.00, -0.004200, 0.005400, -0.014000
2023/03/06 12:40:00, 731378400.00, -0.009300, 0.005700, -0.034200
2023/03/06 12:45:00, 731378700.00, 0.012000, 0.010000, -0.048900
2023/03/06 12:50:00, 731379000.00, 0.001000, 0.008300, -0.015000
2023/03/06 12:55:00, 731379300.00, -0.005700, 0.010400, -0.024500
2023/03/06 13:00:00, 731379600.00, -0.006400, 0.009800, -0.033000
2023/03/06 13:05:00, 731379900.00, 0.005000, 0.010000, -0.045100
2023/03/06 13:10:00, 731380200.00, 0.001000, 0.002500, -0.054000
2023/03/06 13:15:00, 731380500.00, 0.001700, 0.005300, -0.045000
2023/03/06 13:20:00, 731380800.00, -0.009300, 0.006000, -0.045300
2023/03/06 13:25:00, 731381100.00, 0.009700, 0.006900, -0.024700
2023/03/06 13:30:00, 731381400.00, 0.004700, 0.003500, -0.014600
2023/03/06 13:35:00, 731381700.00, -0.000400, 0.004600, -0.039300
2023/03/06 13:40:00, 731382000.00, 0.006800, 0.004500, -0.023300
2023/03/06 13:45:00, 731382300.00, -0.001800, 0.004900, -0.025600
2023/03/06 13:50:00, 731382600.00, -0.001400, 0.003100, 0.001500
2023/03/06 13:55:00, 731382900.00, -0.001500, 0.011800, -0.046700
2023/03/06 14:00:00, 731383200.00, 0.014000, 0.016600, -0.026500
2023/03/06 14:05:00, 731383500.00, 0.006800, 0.004700, -0.023300
2023/03/06 14:10:00, 731383800.00, 0.010200, 0.004600, -0.029500
2023/03/06 14:15:00, 731384100.00, 0.011900, 0.002700, -0.027300
2023/03/06 14:20:00, 731384400.00, 0.004000, 0.019600, -0.068500
2023/03/06 14:25:00, 731384700.00, 0.012500, 0.017100, -0.083500
2023/03/06 14:30:00, 731385000.00, -0.007300, 0.018000, -0.034200
2023/03/06 14:35:00, 731385300.00, -0.003300, 0.007100, -0.041900
2023/03/06 14:40:00, 731385600.00, 0.010500, -0.000400, -0.062100
2023/03/06 14:45:00, 731385900.00, 0.006800, 0.003800, -0.028900
2023/03/06 14:50:00, 731386200.00, -0.005800, 0.011700, -0.030300
2023/03/06 14:55:00, 731386500.00, -0.003100, 0.007700, -0.038400
2023/03/06 15:00:00, 731386800.00, 0.007200, 0.023900, -0.026200
2023/03/06 15:05:00, 731387100.00, -0.001000, 0.012500, -0.043900
2023/03/06 15:10:00, 731387400.00, 0.014900, 0.019600, -0.027200
2023/03/06 15:15:00, 731387700.00, 0.000700, 0.014300, -0.027700
2023/03/06 15:20:00, 731388000.00, 0.000800, 0.016400, -0.025900
2023/03/06 15:25:00, 731388300.00, 0.013700, 0.010600, -0.026300
2023/03/06 15:30:00, 731388600.00, -0.004300, 0.012900, -0.042500
2023/03/06 15:35:00, 731388900.00, -0.000300, 0.006500, -0.022600
2023/03/06 15:40:00, 731389200.00, 0.009600, 0.006600, -0.027800
2023/03/06 15:45:00, 731389500.00, 0.007300, 0.010400, -0.011100
2023/03/06 15:50:00, 731389800.00, 0.012300, 0.014200, 0.001500
2023/03/06 15:55:00, 731390100.00, 0.005100, 0.007000, 0.003200
2023/03/06 16:00:00, 731390400.00, 0.008900, 0.013600, -0.001600
2023/03/06 16:05:00, 731390700.00, 0.016400, 0.021500, -0.036900
2023/03/06 16:10:00, 731391000.00, 0.026200, 0.027600, -0.050400
2023/03/06 16:15:00, 731391300.00, 0.020200, 0.029800, -0.024500
2023/03/06 16:20:00, 731391600.00, 0.007200, 0.020900, -0.024600
2023/03/06 16:25:00, 731391900.00, 0.020200, 0.027800, -0.046600
2023/03/06 16:30:00, 731392200.00, 0.023800, 0.028300, -0.060100
2023/03/06 16:35:00, 731392500.00, 0.011800, 0.025400, -0.042100
2023/03/06 16:40:00, 731392800.00, 0.021700, 0.020000, -0.035500
2023/03/06 16:45:00, 731393100.00, 0.010500, 0.015300, -0.042600
2023/03/06 16:50:00, 731393400.00, 0.012800, 0.006900, -0.042800
2023/03/06 16:55:00, 731393700.00, 0.021800, 0.021300, -0.051500
2023/03/06 17:00:00, 731394000.00, 0.017600, 0.017700, -0.027500
2023/03/06 17:05:00, 731394300.00, 0.009300, 0.019300, -0.045500
2023/03/06 17:10:00, 731394600.00, 0.008700, 0.019200, -0.048200
2023/03/06 17:15:00, 731394900.00, 0.010100, 0.014400, -0.044100
2023/03/06 17:20:00, 731395200.00, 0.003900, 0.021300, -0.047200
2023/03/06 17:25:00, 731395500.00, 0.000400, 0.022400, -0.050900
2023/03/06 17:30:00, 731395800.00, -0.002100, 0.011500, -0.042100
2023/03/06 17:35:00, 731396100.00, -0.000700, 0.015300, -0.049300
2023/03/06 17:40:00, 731396400.00, 0.006000, 0.019700, -0.055200
2023/03/06 17:45:00, 731396700.00, 0.001700, 0.017100, -0.072000
2023/03/06 17:50:00, 731397000.00, -0.003400, 0.009600, -0.044500
2023/03/06 17:55:00, 731397300.00, 0.002800, 0.019200, -0.032800
2023/03/06 18:00:00, 731397600.00, 0.002800, 0.009200, -0.059900
2023/03/06 18:05:00, 731397900.00, -0.004600, 0.013300, -0.044900
2023/03/06 18:10:00, 731398200.00, 0.005700, 0.010900, -0.042100
2023/03/06 18:15:00, 731398500.00, -0.005000, 0.006200, -0.026600
2023/03/06 18:20:00, 731398800.00, -0.001200, 0.009000, -0.046400
2023/03/06 18:25:00, 731399100.00, -0.000300, 0.013500, -0.027700
2023/03/06 18:30:00, 731399400.00, -0.006700, 0.011000, -0.061200
2023/03/06 18:35:00, 731399700.00, 0.003800, 0.016100, -0.046900
2023/03/06 18:40:00, 731400000.00, -0.003400, 0.016400, -0.043100
2023/03/06 18:45:00, 731400300.00, -0.005400, 0.013300, -0.039700
2023/03/06 18:50:00, 731400600.00, -0.007300, 0.009900, -0.033200
2023/03/06 18:55:00, 731400900.00, -0.003300, 0.010400, -0.059900
2023/03/06 19:00:00, 731401200.00, -0.010000, 0.012600, -0.038400
2023/03/06 19:05:00, 731401500.00, -0.010200, 0.007000, -0.036900
2023/03/06 19:10:00, 731401800.00, -0.013300, 0.006100, -0.024000
2023/03/06 19:15:00, 731402100.00, -0.008900, 0.000600, -0.028700
2023/03/06 19:20:00, 731402400.00, -0.002700, -0.003500, -0.035300
2023/03/06 19:25:00, 731402700.00, -0.007900, 0.001900, -0.042700
2023/03/06 19:30:00, 731403000.00, -0.007400, 0.000200, -0.027700
2023/03/06 19:35:00, 731403300.00, -0.002400, 0.001200, -0.049200
2023/03/06 19:40:00, 731403600.00, -0.007900, 0.007300, -0.045500
2023/03/06 19:45:00, 731403900.00, 0.006400, 0.005000, -0.044000
2023/03/06 19:50:00, 731404200.00, -0.010000, 0.000500, -0.043700
2023/03/06 19:55:00, 731404500.00, -0.016700, 0.013000, -0.023700
2023/03/06 20:00:00, 731404800.00, -0.013700, 0.007600, -0.035700
2023/03/06 20:05:00, 731405100.00, -0.006700, 0.004400, -0.042200
2023/03/06 20:10:00, 731405400.00, -0.003400, 0.011400, -0.046300
2023/03/06 20:15:00, 731405700.00, -0.000100, 0.001900, -0.038200
2023/03/06 20:20:00, 731406000.00, -0.006100, 0.006400, -0.045800
2023/03/06 20:25:00, 731406300.00, -0.000400, -0.004100, -0.034600
2023/03/06 20:30:00, 731406600.00, -0.001600, 0.002200, -0.048800
2023/03/06 20:35:00, 731406900.00, -0.001300, -0.000800, -0.036600
2023/03/06 20:40:00, 731407200.00, 0.002700, 0.011800, -0.031700
2023/03/06 20:45:00, 731407500.00, 0.000700, 0.003200, -0.035600
2023/03/06 20:50:00, 731407800.00, -0.007600, -0.007200, -0.015200
2023/03/06 20:55:00, 731408100.00, -0.012700, -0.001000, -0.014500
2023/03/06 21:00:00, 731408400.00, -0.008300, -0.006300, -0.042300
2023/03/06 21:05:00, 731408700.00, 0.002200, -0.003800, -0.030100
2023/03/06 21:10:00, 731409000.00, 0.003000, 0.003800, -0.024900
2023/03/06 21:15:00, 731409300.00, 0.000400, 0.000600, -0.039300
2023/03/06 21:20:00, 731409600.00, 0.005900, -0.003700, -0.032500
2023/03/06 21:25:00, 731409900.00, -0.000100, -0.007200, -0.042800
2023/03/06 21:30:00, 731410200.00, 0.001500, -0.002000, -0.017100
2023/03/06 21:35:00, 731410500.00, -0.002100, 0.001100, -0.029300
2023/03/06 21:40:00, 731410800.00, -0.001000, -0.003700, -0.036900
2023/03/06 21:45:00, 731411100.00, 0.005500, -0.007200, -0.016800
2023/03/06 21:50:00, 731411400.00, 0.006100, -0.003100, -0.018400
2023/03/06 21:55:00, 731411700.00, 0.001100, -0.003300, -0.018600
2023/03/06 22:00:00, 731412000.00, 0.004000, -0.008800, -0.018200
2023/03/06 22:05:00, 731412300.00, 0.007800, 0.000900, -0.030300
2023/03/06 22:10:00, 731412600.00, -0.002600, 0.007000, -0.052500
2023/03/06 22:15:00, 731412900.00, -0.016900, 0.005500, -0.064900
2023/03/06 22:20:00, 731413200.00, -0.001800, -0.000300, -0.032300
2023/03/06 22:25:00, 731413500.00, -0.010800, 0.001700, -0.047500
2023/03/06 22:30:00, 731413800.00, -0.006500, 0.004100, -0.034200
2023/03/06 22:35:00, 731414100.00, 0.003900, 0.012100, -0.037200
2023/03/06 22:40:00, 731414400.00, -0.013100, 0.014100, -0.036400
2023/03/06 22:45:00, 731414700.00, -0.009800, 0.013400, -0.039800
2023/03/06 22:50:00, 731415000.00, -0.002600, 0.007500, -0.054100
2023/03/06 22:55:00, 731415300.00, -0.008200, 0.001500, -0.039300
2023/03/06 23:00:00, 731415600.00, -0.003100, 0.008200, -0.043800
2023/03/06 23:05:00, 731415900.00, -0.004100, 0.011800, -0.064200
2023/03/06 23:10:00, 731416200.00, -0.006500, 0.009800, -0.063300
2023/03/06 23:15:00, 731416500.00, -0.007300, 0.010600, -0.053200
2023/03/06 23:20:00, 731416800.00, -0.006400, 0.000400, -0.063500
2023/03/06 23:25:00, 731417100.00, -0.002800, 0.011600, -0.069000
2023/03/06 23:30:00, 731417400.00, -0.005400, 0.008800, -0.072800
2023/03/06 23:35:00, 731417700.00, -0.003500, 0.007600, -0.062500
2023/03/06 23:40:00, 731418000.00, -0.005200, 0.007900, -0.071000
2023/03/06 23:45:00, 731418300.00, -0.009600, 0.003900, -0.064000
2023/03/06 23:50:00, 731418600.00, -0.006000, 0.003400, -0.063100
2023/03/06 23:55:00, 731418900.00, -0.004300, 0.018100, -0.071400
